Location: Brunsbüttel
(52.3892°N, 10.6138°E)
Time: 10:38:06
(UTC+00:00)

SeaSat 1 - Pass Details

Date: 19 May 2025
Orbit: 738 x 740 km, 108.0° (Epoch: 23 June)

Event Time Altitude Azimuth Distance (km) Brightness Sun altitude
Exits shadow 21:36:48 21° 177° (S) 1,630 3.6 -14.6°
Maximum altitude 21:39:54 50° 244° (WSW) 942 2.9 -14.8°
Drops below altitude 10° 21:44:40 10° 320° (NW) 2,260 6.1 -15.1°
Sets 21:47:01 0° 326° (NW) 3,188 7.4 -15.2°
